Weather History for Watsonville, CA

Change the Weather History Date:

Monday, August 5, 2013

  Actual Average Record
Temperature  
Mean Temperature 62 °F 63 °F  
Max Temperature 69 °F 73 °F 81 °F (2001)
Min Temperature 54 °F 53 °F 49 °F (2002)
Degree Days  
Heating Degree Days 3    
Month to date heating degree days 21  
Since 1 June heating degree days 218  
Since 1 July heating degree days 116  
Cooling Degree Days 0    
Month to date cooling degree days 0  
Year to date cooling degree days 40  
Since 1 June cooling degree days 34  
Growing Degree Days 10 (Base 50)    
Moisture  
Dew Point 52 °F    
Average Humidity 78    
Maximum Humidity 93    
Minimum Humidity 63    
Precipitation  
Precipitation 0.00 in - 0.04 in (1955)
Month to date precipitation 0.03  
Year to date precipitation 2.44  
Since 1 July precipitation 0.05  
Sea Level Pressure  
Sea Level Pressure 30.02 in    
Wind  
Wind Speed 5 mph (South)    
Max Wind Speed 13 mph    
Max Gust Speed 21 mph    
Visibility 10 miles    
Events      
T = Trace of Precipitation, MM = Missing Value Source: NWS Daily Summary

Daily Weather History Graph

Daily Weather History Graph

Search for Another Location

Airport:

Trip Planner

Search our weather history database for the weather conditions in past years. The results will help you decide how hot, cold, wet, or windy it might be!

Date:

Astronomy

Aug. 05, 2013 Rise Set
Actual Time 6:16 AM PDT 8:09 PM PDT
Civil Twilight 5:47 AM PDT 8:37 PM PDT
Nautical Twilight 5:13 AM PDT 9:12 PM PDT
Astronomical Twilight 4:36 AM PDT 9:48 PM PDT
Moon 5:15 AM PDT (8/5) 7:14 PM PDT (8/5)
Length of Visible Light 14h 50m
Length of Day
13h 53m
Waning Crescent, 1% of the Moon is Illuminated
Aug 5
Waning Crescent
Aug 6
New
Aug 14
First Quarter
Aug 20
Full
Aug 28
Last Quarter

Hourly Weather History & Observations

Time (PDT) Temp. Dew Point Humidity Pressure Visibility Wind Dir Wind Speed Gust Speed Precip Events Conditions
12:30 AM 55.4 °F 51.8 °F 88% 30.03 in 10.0 mi East 3.5 mph - N/A   Overcast
12:53 AM 55.9 °F 52.0 °F 87% 30.03 in 10.0 mi NE 3.5 mph - N/A   Overcast
1:53 AM 55.0 °F 52.0 °F 89% 30.03 in 10.0 mi Calm Calm - N/A   Overcast
2:53 AM 55.0 °F 52.0 °F 89% 30.02 in 10.0 mi Calm Calm - N/A   Overcast
3:38 AM 55.4 °F 51.8 °F 88% 30.02 in 10.0 mi Calm Calm - N/A   Overcast
3:53 AM 55.0 °F 52.0 °F 89% 30.02 in 10.0 mi Calm Calm - N/A   Overcast
4:53 AM 54.0 °F 52.0 °F 93% 30.01 in 9.0 mi WNW 3.5 mph - N/A   Overcast
5:53 AM 54.0 °F 51.1 °F 90% 30.03 in 8.0 mi Calm Calm - N/A   Overcast
6:53 AM 54.0 °F 52.0 °F 93% 30.04 in 5.0 mi Calm Calm - N/A   Overcast
7:53 AM 54.0 °F 52.0 °F 93% 30.04 in 6.0 mi Calm Calm - N/A   Overcast
8:53 AM 55.0 °F 52.0 °F 89% 30.05 in 10.0 mi Calm Calm - N/A   Overcast
9:53 AM 55.9 °F 52.0 °F 87% 30.05 in 10.0 mi Calm Calm - N/A   Overcast
10:41 AM 57.2 °F 53.6 °F 88% 30.05 in 10.0 mi Calm Calm - N/A   Overcast
10:53 AM 57.9 °F 53.1 °F 84% 30.05 in 10.0 mi SSW 3.5 mph - N/A   Overcast
11:39 AM 62.6 °F 53.6 °F 72% 30.05 in 10.0 mi Calm Calm - N/A   Overcast
11:53 AM 63.0 °F 53.1 °F 70% 30.04 in 10.0 mi WSW 4.6 mph - N/A   Mostly Cloudy
12:11 PM 66.2 °F 53.6 °F 64% 30.03 in 10.0 mi SSE 6.9 mph - N/A   Partly Cloudy
12:53 PM 66.9 °F 54.0 °F 63% 30.03 in 10.0 mi South 10.4 mph - N/A   Clear
1:53 PM 66.0 °F 53.1 °F 63% 30.03 in 10.0 mi SSW 9.2 mph - N/A   Clear
2:53 PM 64.9 °F 53.1 °F 65% 30.02 in 10.0 mi SSW 9.2 mph - N/A   Clear
3:53 PM 64.9 °F 52.0 °F 63% 30.01 in 10.0 mi SSW 9.2 mph - N/A   Clear
4:53 PM 64.9 °F 52.0 °F 63% 30.00 in 10.0 mi SSW 8.1 mph - N/A   Clear
5:53 PM 62.1 °F 52.0 °F 70% 30.00 in 10.0 mi South 9.2 mph - N/A   Clear
6:53 PM 59.0 °F 52.0 °F 78% 30.00 in 10.0 mi South 8.1 mph - N/A   Clear
7:21 PM 57.2 °F 51.8 °F 82% 29.99 in 10.0 mi South 6.9 mph - N/A   Mostly Cloudy
7:53 PM 57.0 °F 52.0 °F 83% 30.00 in 10.0 mi South 5.8 mph - N/A   Overcast
8:08 PM 57.2 °F 51.8 °F 82% 30.00 in 10.0 mi South 5.8 mph - N/A   Overcast
8:53 PM 57.0 °F 52.0 °F 83% 30.01 in 10.0 mi ENE 5.8 mph - N/A   Overcast
9:53 PM 55.9 °F 52.0 °F 87% 30.02 in 10.0 mi East 5.8 mph - N/A   Overcast
10:53 PM 55.9 °F 52.0 °F 87% 30.02 in 10.0 mi ESE 5.8 mph - N/A   Overcast
11:53 PM 55.9 °F 52.0 °F 87% 30.02 in 10.0 mi ESE 5.8 mph - N/A   Overcast